Vorticity
8 9 10 16 25 37 45 50 50 50 49 53 53 52 40 28 16 9 5 5 7 9 7 3 7 6 6
18 30 48 53 48 42 30 25 21 12 10 9 13 27 36 44 42 38 23 8 6 5 8 3 2 7 7
53 46 30 20 22 16 10 8 7 12 9 16 15 16 10 11 32 41 38 34 14 10 6 6 4 3 5
17 18 6 11 6 2 3 5 9 3 10 21 25 17 14 18 9 20 36 33 39 23 19 7 5 4 5
16 15 18 16 11 11 13 8 8 6 8 15 31 28 26 22 17 11 18 30 31 34 30 22 11 5 9
16 17 12 12 14 11 12 11 10 11 11 39 30 27 26 24 19 18 9 17 27 27 33 35 23 13 6
10 15 20 11 9 16 17 10 12 17 39 33 22 21 21 17 16 17 13 15 28 26 20 28 41 23 12
18 12 7 10 14 15 2 30 34 32 26 25 13 18 17 15 14 14 12 13 22 30 21 17 28 40 20
18 20 1 12 21 7 15 28 28 32 16 17 11 15 15 12 11 11 10 16 20 17 31 17 11 31 35
21 14 9 17 12 8 28 30 29 18 10 12 10 11 11 9 9 10 15 21 21 30 26 32 18 12 27
11 14 16 12 21 32 24 30 21 13 9 11 9 12 11 9 14 17 24 20 17 22 31 28 30 23 18
11 15 20 7 30 29 23 21 16 13 11 9 10 10 9 15 24 24 17 11 12 12 22 29 31 27 22
11 17 18 22 28 25 25 19 13 12 14 11 11 10 11 14 17 18 7 12 8 10 14 21 26 30 27
8 17 14 26 27 25 26 19 13 14 12 11 10 13 9 16 9 21 8 4 10 11 12 16 21 23 26
17 2 9 1 28 30 28 22 17 13 11 8 14 11 15 22 17 15 14 10 5 9 12 15 15 20 21
16 7 3 6 -4 27 34 28 23 16 8 9 10 14 8 15 22 17 13 5 8 8 8 9 11 16 17
19 11 10 5 4 -2 20 34 28 22 17 8 9 12 17 9 19 29 19 8 3 14 9 8 9 10 15
Height
5550 5535 5526 5514 5505 5498 5494 5491 5488 5485 5481 5480 5482 5487 5496 5504 5514 5525 5535 5546 5556 5567 5577 5586 5597 5608 5622
5532 5502 5490 5480 5474 5471 5468 5466 5464 5463 5462 5461 5458 5458 5460 5464 5473 5482 5495 5508 5519 5532 5544 5561 5569 5584 5596
5489 5479 5469 5458 5456 5453 5451 5449 5446 5443 5443 5440 5438 5436 5437 5439 5443 5448 5455 5465 5486 5496 5513 5527 5540 5555 5570
5461 5460 5454 5445 5438 5435 5435 5430 5427 5423 5420 5415 5412 5413 5414 5417 5422 5424 5427 5435 5445 5460 5475 5492 5508 5524 5541
5443 5440 5435 5429 5422 5417 5411 5409 5408 5403 5394 5392 5387 5387 5391 5394 5398 5402 5406 5411 5419 5427 5443 5461 5477 5492 5509
5425 5420 5417 5411 5404 5398 5391 5385 5383 5382 5371 5370 5366 5367 5370 5372 5377 5383 5388 5392 5398 5405 5415 5430 5448 5464 5480
5409 5404 5399 5393 5387 5380 5372 5364 5359 5357 5350 5353 5350 5352 5355 5357 5360 5366 5371 5375 5379 5386 5394 5404 5419 5434 5450
5395 5391 5383 5377 5368 5359 5353 5345 5340 5337 5332 5339 5337 5342 5341 5343 5346 5350 5355 5358 5362 5367 5375 5383 5393 5407 5422
5383 5376 5369 5360 5351 5342 5336 5326 5323 5323 5323 5326 5327 5329 5330 5333 5335 5337 5340 5343 5345 5349 5355 5364 5373 5384 5398
5374 5365 5355 5347 5337 5326 5319 5313 5310 5311 5315 5315 5315 5316 5321 5322 5323 5323 5325 5328 5329 5332 5338 5345 5355 5365 5378
5364 5354 5344 5334 5324 5313 5306 5302 5301 5303 5306 5303 5306 5308 5307 5310 5311 5310 5312 5315 5317 5319 5324 5330 5337 5347 5359
5352 5342 5331 5320 5310 5302 5296 5294 5293 5294 5296 5294 5296 5297 5296 5297 5299 5300 5302 5305 5307 5310 5313 5317 5323 5331 5342
5342 5331 5320 5309 5300 5293 5288 5286 5285 5285 5286 5286 5287 5287 5286 5287 5289 5292 5294 5296 5299 5302 5305 5309 5314 5320 5328
5332 5323 5313 5301 5291 5284 5281 5278 5277 5278 5277 5277 5277 5276 5277 5278 5280 5283 5286 5289 5290 5293 5298 5302 5305 5310 5317
5323 5315 5306 5297 5286 5278 5273 5271 5269 5270 5269 5268 5267 5267 5267 5268 5270 5275 5277 5281 5282 5285 5289 5294 5297 5302 5308
5316 5308 5301 5293 5284 5275 5267 5262 5261 5260 5261 5259 5257 5257 5259 5260 5261 5263 5267 5271 5272 5276 5280 5286 5290 5293 5299
5310 5303 5295 5288 5280 5272 5264 5256 5252 5251 5251 5250 5249 5249 5249 5251 5250 5251 5254 5257 5262 5268 5271 5276 5281 5285 5289